This is the latest recevied weather packets stored in our database for station/object VE9LJW. If no packets are shown the sender has not sent any weather packets the latest 1 day(s).
| Time | Temp. | Humidity | Pressure | Rain* | Wind** | Luminosity | Snow |
|---|---|---|---|---|---|---|---|
| 1778104113 | 16.67° C | 92% | 1007 hPa | 0 mm | - | 9 W/m² | - |
| 1778102598 | 16.67° C | 91% | 1006.5 hPa | 0 mm | - | 17 W/m² | - |
| 1778102293 | 16.67° C | 91% | 1006.7 hPa | 0 mm | - | 18 W/m² | - |
| 1778100171 | 17.22° C | 90% | 1006.6 hPa | 0 mm | - | 44 W/m² | - |
| 1778099263 | 17.22° C | 90% | 1006.7 hPa | 0 mm | - | 54 W/m² | - |
| 1778098656 | 16.67° C | 90% | 1006.6 hPa | 0 mm | - | 42 W/m² | - |
| 1778095012 | 16.67° C | 90% | 1006.9 hPa | 0 mm | - | 127 W/m² | - |
| 1778094708 | 16.67° C | 90% | 1006.9 hPa | 0 mm | - | 126 W/m² | - |
| 1778094102 | 16.67° C | 91% | 1007 hPa | 0 mm | - | 120 W/m² | - |
| 1778092890 | 16.11° C | 90% | 1006.9 hPa | 0 mm | - | 237 W/m² | - |
| 1778091677 | 15.56° C | 91% | 1007 hPa | 0 mm | - | 258 W/m² | - |
| 1778091375 | 16.11° C | 91% | 1007.1 hPa | 0 mm | - | 274 W/m² | - |
| 1778091072 | 15.56° C | 91% | 1007.3 hPa | 0 mm | - | 272 W/m² | - |
| 1778090465 | 15.56° C | 91% | 1007.2 hPa | 0 mm | - | 264 W/m² | - |
| 1778089252 | 15.56° C | 92% | 1007.7 hPa | 0 mm | - | 186 W/m² | - |
| 1778086830 | 15.56° C | 92% | 1008.2 hPa | 0 mm | - | 116 W/m² | - |
| 1778085613 | 15.56° C | 92% | 1008.1 hPa | 0 mm | - | 109 W/m² | - |
| 1778083490 | 15° C | 92% | 1008.5 hPa | 0 mm | - | 157 W/m² | - |
| 1778083187 | 15° C | 92% | 1008.6 hPa | 0 mm | - | 179 W/m² | - |
| 1778080258 | 16.67° C | 87% | 1009 hPa | 0 mm | - | 181 W/m² | - |
| 1778079955 | 16.67° C | 87% | 1008.8 hPa | 0 mm | - | 228 W/m² | - |
| 1778079046 | 16.11° C | 86% | 1008.9 hPa | 0 mm | - | 421 W/m² | - |
| 1778077533 | 16.11° C | 87% | 1008.7 hPa | 0 mm | - | 464 W/m² | - |
| 1778076627 | 16.67° C | 88% | 1008.8 hPa | 0 mm | - | 369 W/m² | - |
| 1778076324 | 16.11° C | 90% | 1008.7 hPa | 0 mm | - | 417 W/m² | - |
* Rain latest hour (hover to see other rain measurements)
** Current wind speed in m/s (hover to see current wind gust speed)